Wind_Speed
17 17 16 16 16 16 16 16 16 17 17 17 17 17 17 18 18 19 20 20 21 21 21 21 22 22 22 23 24 24 24 24 24 24 25 25 25 25
19 19 19 20 19 19 19 19 19 20 20 20 20 21 21 21 22 23 24 24 24 25 25 26 26 27 27 28 28 28 29 29 29 29 29 29 30 29
21 21 21 22 22 22 22 22 22 22 23 23 23 23 24 24 25 25 26 26 27 28 28 29 29 30 31 31 32 32 33 33 34 34 34 34 34 34
23 23 23 24 24 24 24 24 24 25 25 26 26 26 26 27 27 28 29 29 30 31 32 32 33 34 34 35 36 36 36 37 38 38 39 39 40 40
24 24 24 24 24 24 25 26 26 27 27 28 29 29 30 30 30 31 32 33 34 35 36 36 37 38 39 39 40 40 41 42 43 43 44 44 45 45
24 24 25 25 26 26 26 27 27 28 29 30 31 32 33 34 34 35 36 36 38 39 39 40 40 41 43 44 44 45 46 47 47 48 48 48 48 49
25 26 26 27 27 28 28 29 30 30 31 32 33 35 36 38 38 39 40 40 41 42 43 43 44 45 46 47 48 49 50 50 51 51 52 52 52 52
26 27 27 28 29 30 31 32 33 34 35 36 37 38 39 41 42 43 44 45 45 46 47 47 49 49 50 51 52 53 53 54 54 55 56 56 55 56
27 28 30 31 31 32 33 34 35 36 38 39 40 42 43 44 45 46 47 48 49 49 51 51 52 53 54 55 56 57 57 58 59 59 60 60 60 59
30 31 32 33 34 35 36 37 38 39 40 41 43 44 45 45 47 48 49 51 52 53 54 54 55 56 58 59 61 62 62 63 64 64 65 65 65 65
32 33 34 35 36 37 38 39 40 42 43 44 45 46 47 48 50 51 52 54 55 57 59 60 60 61 61 63 64 65 66 67 67 68 68 68 68 68
34 34 36 37 38 39 41 42 43 45 46 48 49 50 51 52 53 55 56 58 59 60 62 63 65 66 65 65 65 66 67 67 68 68 69 69 69 69
36 37 38 39 41 42 43 44 46 47 49 50 51 52 54 55 57 59 60 62 63 64 65 66 66 66 67 66 65 64 65 65 65 66 66 67 68 67
38 39 40 41 42 44 46 47 49 50 51 52 54 55 57 59 60 62 63 64 65 65 66 66 66 65 65 64 63 62 61 61 61 61 62 62 62 62
39 40 42 43 44 46 47 49 50 51 53 55 56 58 59 60 62 62 63 64 64 64 64 64 64 63 63 61 60 59 58 58 57 57 57 57 58 58
41 42 43 45 46 48 49 51 52 54 55 56 58 59 60 61 61 62 62 61 61 61 61 60 60 58 57 57 56 56 56 55 54 54 54 54 54 55
42 43 45 47 48 50 52 53 54 56 57 57 58 58 59 59 59 59 58 58 56 55 55 55 54 53 52 52 51 51 51 50 50 49 48 48 49 50
44 46 47 49 51 52 53 54 55 56 56 57 57 57 57 56 56 56 55 53 53 52 51 50 49 48 47 48 48 46 45 44 43 43 43 42 41 43
46 48 49 51 52 53 54 54 55 55 55 55 55 54 54 54 53 52 51 50 49 49 47 46 45 44 42 41 41 42 41 39 38 38 38 37 36 36
48 50 51 51 52 53 53 53 54 53 53 52 52 51 51 50 49 48 47 46 45 43 42 42 41 40 39 37 36 37 38 35 33 33 33 32 32 32
49 49 50 50 51 51 51 51 51 50 50 49 49 48 47 46 45 44 43 41 40 39 38 37 37 37 36 34 33 32 33 32 31 30 29 28 28 28
47 47 48 48 48 48 48 47 47 46 46 45 45 44 43 42 41 39 38 37 36 35 34 34 34 33 33 31 30 29 28 28 29 29 27 26 25 25
45 45 45 45 45 44 43 43 43 42 42 42 41 40 39 38 37 36 35 34 33 33 32 31 31 31 30 29 28 27 26 26 26 26 27 26 25 24
Wind_Direction
249 252 256 259 260 262 265 268 269 269 270 271 272 273 274 274 274 275 275 276 276 277 277 277 277 277 278 278 277 276 276 275 275 274 274 273 271 270
251 255 259 261 263 265 267 269 271 272 273 273 273 273 274 275 276 276 277 278 278 278 278 278 278 277 277 276 275 275 274 274 274 273 273 272 272 271
254 257 261 264 265 268 269 271 273 275 275 275 274 274 275 276 276 276 278 279 279 280 280 279 279 278 277 276 276 275 274 274 273 272 272 271 271 270
257 260 263 265 267 269 271 272 274 275 277 276 275 275 275 275 276 277 278 278 279 279 279 279 279 278 277 277 276 274 273 273 273 272 271 271 270 269
258 261 263 265 266 269 273 274 275 277 277 277 277 277 276 276 277 278 279 279 279 279 279 279 278 278 277 277 276 275 274 273 272 272 271 271 270 268
258 261 263 266 268 271 273 275 276 277 277 278 278 279 279 279 279 279 279 280 279 280 280 279 278 277 276 276 276 275 274 273 272 271 271 270 270 269
260 262 264 267 269 272 274 274 275 277 279 280 280 279 280 280 280 280 280 280 280 280 279 279 279 278 277 276 275 275 274 273 273 272 271 270 269 268
264 265 266 269 272 273 274 275 276 278 280 280 280 280 280 281 281 281 280 280 280 280 280 280 280 279 278 277 276 275 274 273 272 271 271 270 269 268
269 269 270 271 273 275 276 277 277 279 280 281 281 281 282 282 282 282 281 280 281 280 280 280 280 280 279 278 277 276 275 274 273 272 271 270 269 268
272 271 271 271 273 274 276 277 278 280 281 281 281 281 282 281 282 282 282 282 282 281 281 281 280 280 279 278 277 276 275 274 273 272 271 270 269 268
274 273 273 274 274 276 278 279 280 281 281 281 282 282 282 281 281 282 282 282 282 282 282 282 281 280 280 279 279 278 277 275 274 273 272 270 269 268
275 275 276 277 278 279 280 281 281 281 282 282 282 282 282 282 282 282 283 283 282 282 282 282 282 281 280 280 279 278 277 276 275 274 273 272 270 269
275 276 278 279 279 280 281 281 282 282 282 282 283 283 283 283 283 284 284 284 284 284 283 282 282 282 281 280 279 279 279 278 276 275 274 273 272 271
279 279 280 280 280 281 282 283 283 283 283 283 284 284 284 284 285 285 285 286 286 285 285 284 283 282 282 281 281 280 280 279 278 276 275 274 273 272
282 281 282 282 282 283 283 284 284 284 284 284 285 285 285 285 285 286 286 286 286 286 285 285 285 284 284 283 282 281 280 279 279 278 277 275 274 272
284 283 283 283 284 285 285 285 285 285 285 285 285 286 286 286 286 286 286 286 287 287 287 287 287 287 286 285 284 283 282 281 279 278 277 276 274 273
285 285 286 286 286 286 286 286 286 286 286 287 287 287 287 287 287 287 287 287 288 288 288 288 289 288 288 287 286 285 284 282 280 279 278 277 275 274
288 288 288 288 288 288 287 287 287 288 288 288 288 288 289 289 289 289 289 289 289 289 288 287 288 288 289 290 289 287 286 284 283 282 281 279 276 275
289 289 289 289 289 289 289 289 289 289 289 289 289 290 290 290 290 289 289 289 289 289 289 288 288 289 289 289 290 290 289 287 285 284 283 281 279 277
291 291 291 291 290 290 290 290 290 290 291 291 291 291 291 291 291 290 290 290 290 290 290 290 290 290 291 290 289 289 290 289 287 286 285 284 282 280
293 293 292 292 292 291 292 292 292 292 292 292 292 293 293 293 292 291 291 290 290 290 290 291 292 292 292 292 292 290 290 290 289 289 288 286 284 282
296 296 295 295 294 294 294 293 293 294 294 294 294 294 294 294 293 292 291 291 291 291 290 291 292 292 292 292 292 291 290 291 291 292 291 290 288 285
299 299 299 298 298 297 297 297 297 297 297 296 296 296 296 295 294 293 292 292 292 292 291 291 292 292 292 292 292 292 291 290 290 292 294 294 293 292
Height
5866 5867 5868 5868 5869 5869 5869 5869 5869 5869 5868 5868 5867 5867 5866 5865 5864 5864 5863 5862 5861 5860 5859 5858 5857 5856 5855 5854 5853 5852 5851 5851 5850 5849 5848 5847 5847 5846
5862 5863 5863 5864 5864 5864 5864 5864 5864 5864 5863 5862 5862 5861 5860 5860 5859 5858 5857 5856 5855 5854 5853 5852 5851 5849 5848 5847 5846 5845 5844 5843 5842 5841 5841 5840 5839 5839
5857 5857 5858 5858 5858 5858 5858 5858 5858 5857 5857 5856 5856 5855 5854 5853 5852 5851 5850 5849 5847 5846 5845 5844 5843 5841 5840 5838 5837 5836 5835 5834 5833 5832 5831 5831 5830 5829
5851 5852 5852 5852 5852 5852 5851 5851 5851 5850 5850 5849 5848 5848 5847 5846 5845 5843 5842 5841 5839 5838 5836 5835 5834 5832 5830 5829 5827 5826 5824 5823 5822 5822 5821 5820 5819 5818
5845 5845 5845 5846 5845 5845 5844 5844 5843 5843 5842 5841 5840 5839 5838 5837 5836 5835 5833 5832 5830 5828 5826 5825 5823 5822 5820 5818 5816 5815 5813 5812 5810 5809 5808 5807 5806 5805
5839 5839 5839 5839 5839 5838 5837 5836 5835 5835 5834 5833 5831 5830 5829 5827 5826 5825 5823 5821 5819 5817 5815 5813 5812 5810 5808 5806 5804 5802 5800 5798 5797 5795 5794 5793 5792 5791
5833 5832 5832 5832 5831 5830 5829 5828 5827 5826 5825 5823 5822 5820 5819 5817 5815 5814 5812 5810 5807 5805 5803 5801 5799 5797 5794 5792 5790 5788 5786 5784 5782 5780 5779 5778 5777 5776
5826 5826 5825 5824 5823 5822 5821 5820 5819 5817 5816 5814 5812 5810 5808 5806 5804 5802 5800 5798 5795 5793 5790 5788 5785 5783 5780 5777 5774 5772 5770 5768 5766 5764 5762 5761 5760 5759
5819 5818 5817 5816 5815 5814 5812 5811 5809 5807 5805 5803 5801 5799 5797 5794 5792 5789 5786 5783 5781 5778 5775 5773 5770 5767 5764 5760 5757 5754 5752 5750 5748 5746 5744 5743 5741 5741
5811 5810 5809 5807 5806 5805 5803 5801 5799 5797 5794 5792 5789 5786 5784 5781 5778 5775 5772 5769 5765 5762 5759 5757 5754 5751 5747 5742 5739 5735 5733 5730 5728 5726 5724 5722 5721 5720
5803 5801 5800 5798 5796 5794 5792 5790 5788 5785 5782 5779 5776 5773 5770 5767 5764 5761 5757 5754 5750 5745 5741 5738 5736 5733 5729 5724 5719 5715 5711 5708 5706 5703 5701 5700 5699 5698
5793 5792 5790 5788 5786 5783 5781 5778 5775 5772 5769 5766 5762 5759 5755 5751 5747 5744 5740 5736 5732 5728 5723 5719 5715 5711 5710 5705 5699 5694 5689 5686 5683 5680 5678 5677 5675 5675
5783 5781 5779 5777 5774 5771 5768 5765 5762 5758 5755 5751 5747 5743 5739 5735 5730 5726 5721 5717 5712 5708 5703 5699 5694 5690 5686 5684 5680 5673 5668 5664 5661 5659 5656 5654 5653 5651
5773 5770 5767 5765 5762 5759 5755 5752 5748 5744 5740 5736 5731 5727 5722 5717 5712 5707 5702 5697 5692 5687 5682 5677 5673 5669 5665 5662 5659 5654 5648 5644 5641 5638 5635 5633 5631 5630
5761 5758 5755 5752 5749 5745 5741 5737 5733 5729 5724 5720 5715 5710 5705 5699 5694 5689 5683 5677 5672 5666 5661 5656 5652 5648 5644 5640 5638 5634 5630 5626 5621 5618 5616 5614 5611 5610
5749 5746 5743 5739 5735 5731 5726 5722 5717 5713 5708 5703 5697 5692 5687 5681 5676 5671 5665 5659 5654 5648 5641 5637 5632 5629 5625 5621 5617 5614 5610 5607 5604 5600 5598 5596 5593 5590
5736 5733 5729 5724 5720 5716 5711 5706 5701 5696 5690 5685 5680 5674 5669 5663 5657 5652 5647 5642 5637 5632 5626 5620 5615 5611 5607 5604 5600 5596 5592 5589 5586 5583 5581 5579 5576 5573
5723 5719 5714 5709 5705 5700 5694 5689 5684 5678 5673 5667 5662 5656 5651 5646 5640 5635 5630 5625 5620 5615 5611 5606 5602 5598 5593 5588 5584 5581 5577 5574 5571 5568 5565 5563 5562 5559
5709 5704 5699 5694 5688 5683 5677 5672 5666 5661 5655 5650 5645 5640 5634 5629 5624 5619 5614 5609 5605 5600 5595 5591 5588 5584 5581 5578 5572 5566 5563 5561 5558 5555 5552 5550 5548 5546
5694 5688 5683 5677 5672 5666 5661 5655 5650 5644 5639 5633 5628 5623 5618 5613 5608 5603 5599 5595 5591 5586 5582 5578 5574 5571 5568 5565 5562 5556 5551 5549 5547 5544 5541 5539 5537 5535
5678 5673 5667 5661 5656 5650 5644 5639 5634 5628 5623 5618 5613 5608 5603 5599 5594 5589 5585 5581 5578 5574 5570 5566 5562 5559 5556 5553 5550 5547 5542 5539 5536 5534 5532 5529 5528 5526
5663 5657 5652 5646 5640 5635 5629 5624 5619 5614 5609 5604 5599 5594 5589 5585 5581 5577 5573 5569 5566 5562 5559 5556 5552 5549 5546 5543 5540 5537 5534 5531 5528 5525 5522 5520 5518 5517
5649 5644 5638 5632 5626 5621 5616 5610 5605 5600 5595 5590 5586 5581 5577 5572 5568 5565 5561 5558 5555 5552 5549 5546 5542 5539 5536 5534 5531 5528 5526 5524 5521 5518 5515 5512 5510 5509